"2016-07-06 00:00:00",1784089,5.225,198.3,4.282,0.189,24.81,110.6587,26.59,27.7,18.89,0,111.6,12.97,27.43,160.3
"2016-07-06 00:00:30",1784090,4.699,193.7,2.862,0.359,24.73,110.6419,26.54,27.67,17.72,0,111.6,12.97,27.39,155.7
"2016-07-06 00:01:00",1784091,5.278,192.7,1.867,0.25,24.58,110.6324,26.52,27.64,18.89,0,111.6,12.97,27.36,154.7
"2016-07-06 00:01:30",1784092,5.147,191.3,2.043,0.218,24.55,110.6315,26.52,27.63,18.49,0,111.6,12.97,27.36,153.3
"2016-07-06 00:02:00",1784093,5.137,184.8,4.883,0.26,24.46,110.6326,26.52,27.61,18.77,0,111.6,12.97,27.36,146.8
"2016-07-06 00:02:30",1784094,4.94,173.8,2.846,0.289,24.43,110.6246,26.5,27.59,19.7,0,111.6,12.97,27.34,135.8
"2016-07-06 00:03:00",1784095,4.976,179.4,2.412,0.297,24.34,110.6158,26.48,27.58,19.72,0,111.5,12.97,27.32,141.4
"2016-07-06 00:03:30",1784096,4.213,188.2,4.499,0.418,24.32,110.6164,26.48,27.55,19.39,0,111.5,12.97,27.32,150.2
"2016-07-06 00:04:00",1784097,3.724,181.8,4.876,0.326,24.33,110.6211,26.49,27.55,19.24,0,111.5,12.97,27.34,143.8
"2016-07-06 00:04:30",1784098,3.496,177.9,2.988,0.355,24.29,110.6223,26.49,27.52,19.18,0,111.5,12.97,27.34,139.9
"2016-07-06 00:05:00",1784099,4.191,183.4,4.119,0.185,24.23,110.6233,26.5,27.52,19.33,0,111.5,12.97,27.34,145.4
"2016-07-06 00:05:30",1784100,4.362,186.9,3.385,0.317,24.29,110.6233,26.5,27.52,19.7,0,111.5,12.97,27.34,148.9
"2016-07-06 00:06:00",1784101,4.428,195.1,7.486,0.557,24.28,110.6233,26.5,27.5,19.03,0,111.5,12.97,27.34,157.1
"2016-07-06 00:06:30",1784102,3.913,198.7,2.786,0.242,24.26,110.6233,26.5,27.52,19.04,0,111.5,12.97,27.34,160.7
"2016-07-06 00:07:00",1784103,3.278,179.6,7.727,0.184,24.28,110.6233,26.5,27.5,19.4,0,111.5,12.97,27.34,141.6
"2016-07-06 00:07:30",1784104,3.221,169.5,3.417,0.12,24.34,110.6242,26.5,27.5,19.23,0,111.5,12.97,27.34,131.5
"2016-07-06 00:08:00",1784105,2.72,164.5,4.212,0.214,24.27,110.6239,26.5,27.5,18.72,0,111.5,12.97,27.34,126.5
"2016-07-06 00:08:30",1784106,2.629,181.2,4.048,0.186,24.12,110.6251,26.5,27.51,18.78,0,111.5,12.97,27.35,143.2
"2016-07-06 00:09:00",1784107,2.418,172.4,6.318,0.24,24.2,110.628,26.51,27.53,18.74,0,111.5,12.97,27.35,134.4
"2016-07-06 00:09:30",1784108,1.805,170.1,10.56,0.322,24.11,110.6339,26.52,27.52,18.58,0,111.5,12.97,27.37,132.1
"2016-07-06 00:10:00",1784109,1.879,169.3,5.628,0.195,24.1,110.6409,26.54,27.55,18.28,0,111.5,12.97,27.39,131.3
"2016-07-06 00:10:30",1784110,2.129,146.9,7.952,0.19,23.8,110.6527,26.57,27.55,19.27,0,111.5,12.97,27.42,108.9
"2016-07-06 00:11:00",1784111,2.576,152.1,2.657,0.236,23.81,110.661,26.59,27.57,20.51,0,111.5,12.97,27.44,114.1
"2016-07-06 00:11:30",1784112,2.26,141.7,4.595,0.155,23.88,110.6612,26.59,27.57,20.59,0,111.5,12.97,27.44,103.7
"2016-07-06 00:12:00",1784113,1.769,145.6,8.43,0.27,23.84,110.6621,26.6,27.58,20.75,0,111.5,12.97,27.44,107.6
"2016-07-06 00:12:30",1784114,1.963,153.1,6.079,0.165,23.92,110.6701,26.62,27.6,20.66,0,111.5,12.97,27.46,115.1
"2016-07-06 00:13:00",1784115,1.471,154.6,12.26,0.376,23.93,110.6833,26.65,27.61,20.55,0,111.5,12.97,27.50,116.6
"2016-07-06 00:13:30",1784116,1.988,159.7,4.513,0.22,23.93,110.6966,26.68,27.62,19.83,0,111.5,12.97,27.53,121.7
"2016-07-06 00:14:00",1784117,2.542,168.8,6.936,0.576,24.09,110.694,26.68,27.65,19.53,0,111.5,12.97,27.52,130.8
"2016-07-06 00:14:30",1784118,2.856,174.7,4.972,0.238,24.13,110.6955,26.68,27.65,19.82,0,111.5,12.97,27.53,136.7
"2016-07-06 00:15:00",1784119,2.51,163.4,4.823,0.141,24.13,110.6967,26.69,27.67,19.62,0,111.5,12.97,27.53,125.4
"2016-07-06 00:15:30",1784120,2.077,157.7,5.48,0.334,24.08,110.7041,26.7,27.69,19.45,0,111.5,12.97,27.55,119.7
"2016-07-06 00:16:00",1784121,2.351,164.2,3.875,0.297,24.02,110.7194,26.74,27.7,19.31,0,111.5,12.97,27.59,126.2
"2016-07-06 00:16:30",1784122,3.026,169.6,2.985,0.251,24.14,110.7273,26.76,27.71,19.19,0,111.5,12.97,27.61,131.6
"2016-07-06 00:17:00",1784123,2.915,157.7,5.46,0.201,24.03,110.7267,26.76,27.74,18.98,0,111.5,12.97,27.61,119.7
"2016-07-06 00:17:30",1784124,2.612,148.6,6.19,0.17,23.95,110.7321,26.78,27.76,19.02,0,111.5,12.97,27.62,110.6
"2016-07-06 00:18:00",1784125,2.365,142,3.362,0.184,23.89,110.7417,26.8,27.76,18.96,0,111.5,12.97,27.65,104.0
"2016-07-06 00:18:30",1784126,2.751,133.8,3.586,0.411,23.96,110.759,26.85,27.77,18.9,0,111.5,12.97,27.69,95.8
"2016-07-06 00:19:00",1784127,2.722,133.2,3.662,0.281,24.01,110.7641,26.86,27.79,18.68,0,111.5,12.97,27.70,95.2
"2016-07-06 00:19:30",1784128,2.819,139.2,5.067,0.209,24.12,110.7637,26.86,27.82,18.61,0,111.5,12.97,27.70,101.2
"2016-07-06 00:20:00",1784129,2.407,144.5,4.214,0.252,24.11,110.7676,26.87,27.83,18.74,0,111.5,12.97,27.71,106.5
"2016-07-06 00:20:30",1784130,1.968,130.1,8.36,0.214,23.97,110.7741,26.88,27.84,18.51,0,111.5,12.97,27.73,92.1
"2016-07-06 00:21:00",1784131,1.931,132,4.24,0.12,24.01,110.7797,26.9,27.86,18.31,0,111.5,12.97,27.74,94.0
"2016-07-06 00:21:30",1784132,2.005,134.3,4.531,0.127,24.04,110.795,26.94,27.87,18.25,0,111.5,12.97,27.78,96.3
"2016-07-06 00:22:00",1784133,1.828,133.6,4.539,0.124,24.06,110.7981,26.95,27.89,18.08,0,111.5,12.97,27.79,95.6
"2016-07-06 00:22:30",1784134,2.068,136.9,4.01,0.167,24.06,110.7996,26.95,27.91,18.02,0,111.5,12.97,27.80,98.9
"2016-07-06 00:23:00",1784135,2.057,131.4,2.177,0.155,24.05,110.8003,26.95,27.93,17.87,0,111.5,12.97,27.80,93.4
"2016-07-06 00:23:30",1784136,2.397,139.3,3.127,0.25,24.03,110.8061,26.97,27.95,17.94,0,111.5,12.97,27.81,101.3
"2016-07-06 00:24:00",1784137,3.027,154.3,7.786,0.286,24.18,110.8152,26.99,27.96,17.76,0,111.5,12.97,27.84,116.3
"2016-07-06 00:24:30",1784138,2.496,167.8,9.91,0.475,24.22,110.8291,27.03,27.96,17.9,0,111.5,12.97,27.87,129.8
"2016-07-06 00:25:00",1784139,2.592,185.3,9.19,0.302,24.19,110.8326,27.03,27.99,16.63,0,111.5,12.97,27.88,147.3
"2016-07-06 00:25:30",1784140,2.385,173.5,7.673,0.197,24.23,110.831,27.03,28,16.57,0,111.5,12.97,27.88,135.5
"2016-07-06 00:26:00",1784141,2.812,177.7,7.417,0.349,24.19,110.8306,27.03,28.03,18.66,0,111.5,12.96,27.88,139.7
"2016-07-06 00:26:30",1784142,2.259,157.4,12.95,0.135,24.06,110.8368,27.05,28.03,18.96,0,111.5,12.97,27.89,119.4
"2016-07-06 00:27:00",1784143,2.264,167.7,10.05,0.17,24.11,110.8391,27.05,28.05,18.79,0,111.5,12.96,27.90,129.7
"2016-07-06 00:27:30",1784144,1.364,167.4,6.634,0.34,24.22,110.8406,27.06,28.06,18.12,0,111.5,12.96,27.90,129.4
"2016-07-06 00:28:00",1784145,1.277,129.8,11.67,0.253,23.96,110.8546,27.09,28.07,18.44,0,111.5,12.96,27.94,91.8
"2016-07-06 00:28:30",1784146,1.173,121.7,9.52,0.226,24.04,110.8619,27.11,28.08,18.57,0,111.5,12.96,27.96,83.7
"2016-07-06 00:29:00",1784147,1.285,140.2,10.02,0.287,23.97,110.8637,27.11,28.08,18.76,0,111.5,12.96,27.96,102.2
"2016-07-06 00:29:30",1784148,1.769,144.2,8.27,0.209,23.9,110.8625,27.11,28.09,18.84,0,111.5,12.96,27.96,106.2
"2016-07-06 00:30:00",1784149,1.493,132.7,6.386,0.268,23.96,110.8637,27.11,28.09,18.95,0,111.5,12.96,27.96,94.7
"2016-07-06 00:30:30",1784150,1.706,118.1,5.404,0.185,24.01,110.8692,27.13,28.11,18.89,0,111.5,12.96,27.98,80.1
"2016-07-06 00:31:00",1784151,1.524,118.5,6.934,0.168,23.95,110.8709,27.13,28.13,18.74,0,111.5,12.96,27.98,80.5
"2016-07-06 00:31:30",1784152,1.121,122.2,6.16,0.192,24.05,110.8831,27.16,28.13,18.65,0,111.5,12.96,28.01,84.2
"2016-07-06 00:32:00",1784153,1.494,124.2,3.491,0.282,23.9,110.8971,27.2,28.15,18.51,0,111.5,12.96,28.05,86.2
"2016-07-06 00:32:30",1784154,2.315,130.6,7.941,0.481,23.9,110.8961,27.2,28.15,18.45,0,111.5,12.97,28.04,92.6
"2016-07-06 00:33:00",1784155,3.003,138.5,2.001,0.189,24.05,110.8943,27.19,28.18,18.88,0,111.5,12.97,28.04,100.5
"2016-07-06 00:33:30",1784156,2.375,136.4,1.125,0.16,24.11,110.8952,27.2,28.18,18.67,0,111.5,12.97,28.04,98.4
"2016-07-06 00:34:00",1784157,2.29,137.5,1.814,0.126,24.2,110.8983,27.2,28.19,18.78,0,111.5,12.97,28.05,99.5
"2016-07-06 00:34:30",1784158,2.494,140.4,2.664,0.117,24.11,110.9007,27.21,28.21,19.06,0,111.5,12.97,28.06,102.4
"2016-07-06 00:35:00",1784159,2.883,143.9,2.659,0.215,24.11,110.9004,27.21,28.24,18.97,0,111.5,12.97,28.06,105.9
"2016-07-06 00:35:30",1784160,2.4,141.1,2.897,0.093,24.16,110.8992,27.21,28.22,18.95,0,111.5,12.97,28.05,103.1
"2016-07-06 00:36:00",1784161,2.445,127.6,6.08,0.12,24.2,110.8958,27.2,28.23,18.41,0,111.5,12.97,28.04,89.6
"2016-07-06 00:36:30",1784162,2.014,122.8,5.407,0.275,24.24,110.8939,27.19,28.23,18.42,0,111.5,12.97,28.04,84.8
"2016-07-06 00:37:00",1784163,2.273,118.9,4.283,0.202,24.15,110.8939,27.19,28.22,18.03,0,111.5,12.97,28.04,80.9
"2016-07-06 00:37:30",1784164,2.215,119.2,2.75,0.119,24.23,110.8963,27.2,28.22,17.83,0,111.5,12.97,28.05,81.2
"2016-07-06 00:38:00",1784165,2.03,117.5,3.167,0.096,24.13,110.895,27.19,28.22,18.05,0,111.5,12.97,28.04,79.5
"2016-07-06 00:38:30",1784166,2.549,113.2,1.898,0.234,24.12,110.895,27.19,28.22,17.67,0,111.5,12.96,28.04,75.2
"2016-07-06 00:39:00",1784167,2.336,128.3,6.637,0.176,24.19,110.8956,27.2,28.23,18.23,0,111.5,12.96,28.04,90.3
"2016-07-06 00:39:30",1784168,2.473,120.9,5.91,0.115,24.09,110.8941,27.19,28.23,18.38,0,111.5,12.96,28.04,82.9
"2016-07-06 00:40:00",1784169,2.915,119.1,2.556,0.278,24.22,110.8945,27.19,28.23,17.7,0,111.5,12.96,28.04,81.1
"2016-07-06 00:40:30",1784170,2.765,121.2,4.56,0.24,24.19,110.8927,27.19,28.22,17.59,0,111.5,12.96,28.04,83.2
"2016-07-06 00:41:00",1784171,2.554,131.1,5.325,0.151,24.18,110.8933,27.19,28.21,17.93,0,111.5,12.97,28.04,93.1
"2016-07-06 00:41:30",1784172,2.017,142.5,3.182,0.247,24.27,110.8946,27.19,28.22,18.13,0,111.5,12.97,28.04,104.5
"2016-07-06 00:42:00",1784173,2.461,130.4,5.886,0.187,24.15,110.894,27.19,28.21,17.75,0,111.5,12.97,28.04,92.4
"2016-07-06 00:42:30",1784174,2.5,132.9,6.222,0.128,24.26,110.8952,27.2,28.21,17.56,0,111.5,12.97,28.04,94.9
"2016-07-06 00:43:00",1784175,2.647,133.2,7.621,0.161,24.25,110.894,27.19,28.21,17.39,0,111.5,12.96,28.04,95.2
"2016-07-06 00:43:30",1784176,2.626,143,4.104,0.165,24.3,110.8933,27.19,28.21,17.25,0,111.5,12.96,28.04,105.0
"2016-07-06 00:44:00",1784177,2.728,141,3.674,0.095,24.43,110.8882,27.18,28.2,17.21,0,111.5,12.96,28.02,103.0
"2016-07-06 00:44:30",1784178,2.663,131.9,3.079,0.212,24.43,110.8821,27.16,28.2,17.08,0,111.5,12.96,28.01,93.9
"2016-07-06 00:45:00",1784179,2.326,136,1.986,0.131,24.38,110.8745,27.14,28.19,17.08,0,111.5,12.96,27.99,98.0
"2016-07-06 00:45:30",1784180,2.333,137.3,3.108,0.104,24.37,110.8704,27.13,28.18,17.14,0,111.5,12.96,27.98,99.3
"2016-07-06 00:46:00",1784181,1.997,136.8,2.586,0.12,24.27,110.8677,27.12,28.19,17.43,0,111.5,12.96,27.97,98.8
"2016-07-06 00:46:30",1784182,1.612,142.7,7.905,0.165,24.21,110.8684,27.13,28.19,17.35,0,111.5,12.96,27.97,104.7
"2016-07-06 00:47:00",1784183,1.802,130.3,1.689,0.187,24.34,110.8672,27.12,28.18,17.2,0,111.5,12.96,27.97,92.3
"2016-07-06 00:47:30",1784184,1.805,123.8,5.378,0.086,24.31,110.8675,27.12,28.17,16.84,0,111.5,12.96,27.97,85.8
"2016-07-06 00:48:00",1784185,2.019,114.5,2.569,0.202,24.31,110.8672,27.12,28.17,16.22,0,111.5,12.96,27.97,76.5
"2016-07-06 00:48:30",1784186,1.933,122.5,5.27,0.121,24.27,110.8672,27.12,28.17,15.87,0,111.5,12.97,27.97,84.5
"2016-07-06 00:49:00",1784187,1.73,127.3,3.659,0.124,24.28,110.8686,27.13,28.18,15.78,0,111.5,12.97,27.97,89.3
"2016-07-06 00:49:30",1784188,2.048,130.4,2.621,0.176,24.23,110.8719,27.14,28.18,16.03,0,111.5,12.97,27.98,92.4
"2016-07-06 00:50:00",1784189,2.43,129.2,4.203,0.191,24.24,110.8773,27.15,28.18,16.24,0,111.5,12.97,28.00,91.2
"2016-07-06 00:50:30",1784190,2.081,124.2,3.919,0.193,24.29,110.8848,27.17,28.17,16.89,0,111.5,12.97,28.02,86.2
"2016-07-06 00:51:00",1784191,2.325,130.3,2.826,0.135,24.15,110.8896,27.18,28.17,16.95,0,111.5,12.97,28.03,92.3
"2016-07-06 00:51:30",1784192,2.149,132.5,4.156,0.227,24.17,110.8921,27.19,28.19,17.42,0,111.5,12.97,28.03,94.5
"2016-07-06 00:52:00",1784193,2.4,134.7,2.675,0.148,24.33,110.8924,27.19,28.2,17.19,0,111.5,12.97,28.04,96.7
"2016-07-06 00:52:30",1784194,2.493,135.3,3.934,0.133,24.32,110.8924,27.19,28.19,17.03,0,111.5,12.97,28.04,97.3
"2016-07-06 00:53:00",1784195,2.466,141.6,2.775,0.362,24.43,110.8924,27.19,28.19,17.37,0,111.5,12.97,28.04,103.6
"2016-07-06 00:53:30",1784196,2.708,142.5,4.736,0.195,24.36,110.8924,27.19,28.21,18.72,0,111.5,12.97,28.04,104.5
"2016-07-06 00:54:00",1784197,2.164,129.4,8.05,0.238,24.31,110.8924,27.19,28.19,18.85,0,111.5,12.97,28.04,91.4
"2016-07-06 00:54:30",1784198,3.04,136,2.014,0.144,24.44,110.8924,27.19,28.2,18.35,0,111.5,12.97,28.04,98.0
"2016-07-06 00:55:00",1784199,3.02,137.8,2.244,0.177,24.4,110.8924,27.19,28.18,17.91,0,111.5,12.97,28.04,99.8
"2016-07-06 00:55:30",1784200,2.813,136.4,4.817,0.165,24.46,110.8924,27.19,28.19,17.61,0,111.5,12.97,28.04,98.4
"2016-07-06 00:56:00",1784201,2.381,141.2,2.986,0.164,24.4,110.8924,27.19,28.17,17.47,0,111.5,12.97,28.04,103.2
"2016-07-06 00:56:30",1784202,2.378,144.9,3.313,0.115,24.34,110.8924,27.19,28.19,17.44,0,111.5,12.97,28.04,106.9
"2016-07-06 00:57:00",1784203,2.416,148.3,4.273,0.28,24.37,110.8927,27.19,28.19,17.69,0,111.5,12.97,28.04,110.3
"2016-07-06 00:57:30",1784204,2.423,157.2,11.28,0.18,24.44,110.8927,27.19,28.2,17.89,0,111.5,12.97,28.04,119.2
"2016-07-06 00:58:00",1784205,2.946,146.4,2.848,0.218,24.26,110.8924,27.19,28.19,17.87,0,111.5,12.97,28.04,108.4
"2016-07-06 00:58:30",1784206,3.161,143,1.978,0.123,24.3,110.893,27.19,28.21,17.93,0,111.5,12.97,28.04,105.0
"2016-07-06 00:59:00",1784207,2.87,140.9,4.003,0.11,24.4,110.8927,27.19,28.21,17.7,0,111.5,12.97,28.04,102.9
"2016-07-06 00:59:30",1784208,2.974,147.1,1.792,0.104,24.23,110.8933,27.19,28.21,18.14,0,111.5,12.97,28.04,109.1
"2016-07-06 01:00:00",1784209,3.154,147.4,1.428,0.223,24.36,110.894,27.19,28.21,18.57,0,111.5,12.97,28.04,109.4
"2016-07-06 01:00:30",1784210,3.652,144.8,4.418,0.196,24.57,110.8961,27.2,28.21,18.55,0,111.5,12.96,28.04,106.8
"2016-07-06 01:01:00",1784211,3.731,145.8,1.769,0.298,24.5,110.8955,27.2,28.21,18.54,0,111.5,12.96,28.04,107.8
"2016-07-06 01:01:30",1784212,3.693,146.7,1.278,0.073,24.31,110.8986,27.2,28.21,18.41,0,111.5,12.96,28.05,108.7
"2016-07-06 01:02:00",1784213,3.808,149.6,0.933,0.16,24.59,110.9005,27.21,28.21,18.41,0,111.5,12.96,28.06,111.6
"2016-07-06 01:02:30",1784214,3.697,149.3,2.719,0.143,24.53,110.8989,27.21,28.2,18.58,0,111.5,12.96,28.05,111.3
"2016-07-06 01:03:00",1784215,3.687,149.4,3.46,0.14,24.55,110.8961,27.2,28.21,18.92,0,111.5,12.96,28.04,111.4
"2016-07-06 01:03:30",1784216,3.852,143.4,3.215,0.169,24.6,110.8765,27.15,28.19,18.95,0,111.5,12.96,27.99,105.4
"2016-07-06 01:04:00",1784217,3.731,145.7,3.131,0.219,24.7,110.8757,27.15,28.21,18.77,0,111.5,12.96,27.99,107.7
"2016-07-06 01:04:30",1784218,3.967,151.5,2.359,0.128,24.75,110.8706,27.13,28.19,18.79,0,111.5,12.96,27.98,113.5
"2016-07-06 01:05:00",1784219,4.117,152.5,2.051,0.223,24.67,110.8681,27.13,28.15,18.32,0,111.5,12.96,27.97,114.5
"2016-07-06 01:05:30",1784220,3.723,151.8,2.551,0.244,24.69,110.8681,27.13,28.17,18.48,0,111.5,12.96,27.97,113.8
"2016-07-06 01:06:00",1784221,3.806,155.9,4.707,0.224,24.76,110.8681,27.13,28.16,18.69,0,111.5,12.96,27.97,117.9
"2016-07-06 01:06:30",1784222,3.525,155,2.628,0.175,24.61,110.8681,27.13,28.15,18.37,0,111.5,12.97,27.97,117.0
"2016-07-06 01:07:00",1784223,3.48,154.7,2.369,0.153,24.56,110.8636,27.11,28.14,18.35,0,111.5,12.97,27.96,116.7
"2016-07-06 01:07:30",1784224,3.627,147.9,1.4,0.069,24.44,110.8552,27.09,28.14,18.58,0,111.5,12.97,27.94,109.9
"2016-07-06 01:08:00",1784225,3.452,149.3,2.465,0.103,24.63,110.8476,27.07,28.13,18.67,0,111.5,12.97,27.92,111.3
"2016-07-06 01:08:30",1784226,3.76,158.7,1.388,0.221,24.61,110.8434,27.06,28.12,18.62,0,111.5,12.97,27.91,120.7
"2016-07-06 01:09:00",1784227,4.18,159,1.517,0.101,24.54,110.8417,27.06,28.11,19.07,0,111.5,12.97,27.90,121.0
"2016-07-06 01:09:30",1784228,4.441,157.9,3.521,0.123,24.79,110.8347,27.04,28.11,19.51,0,111.5,12.97,27.89,119.9
"2016-07-06 01:10:00",1784229,4.791,153.6,1.391,0.138,24.61,110.8345,27.04,28.11,19.45,0,111.5,12.97,27.89,115.6
"2016-07-06 01:10:30",1784230,4.591,154.9,1.139,0.087,24.76,110.8345,27.04,28.09,19.71,0,111.5,12.97,27.89,116.9
"2016-07-06 01:11:00",1784231,4.397,145.9,2.595,0.182,24.68,110.8305,27.03,28.08,19.64,0,111.5,12.97,27.88,107.9
"2016-07-06 01:11:30",1784232,4.579,156.9,4.073,0.246,24.78,110.8204,27,28.07,20.02,0,111.5,12.97,27.85,118.9
"2016-07-06 01:12:00",1784233,4.92,160.7,1.121,0.062,24.97,110.8073,26.97,28.07,20.21,0,111.5,12.97,27.82,122.7
"2016-07-06 01:12:30",1784234,4.916,154.4,4.622,0.278,24.79,110.8008,26.95,28.05,20.44,0,111.5,12.97,27.80,116.4
"2016-07-06 01:13:00",1784235,4.851,151.7,2.32,0.232,24.74,110.8008,26.95,28.05,20.27,0,111.5,12.97,27.80,113.7
"2016-07-06 01:13:30",1784236,5.347,160.6,2.971,0.526,24.82,110.7939,26.93,28.03,20.1,0,111.5,12.97,27.78,122.6
"2016-07-06 01:14:00",1784237,5.844,162.2,1.94,0.326,24.89,110.7772,26.89,28.01,20.15,0,111.5,12.97,27.74,124.2
"2016-07-06 01:14:30",1784238,5.57,156.3,2.226,0.267,24.8,110.7715,26.88,28,20.22,0,111.5,12.97,27.72,118.3
"2016-07-06 01:15:00",1784239,5.775,151.5,1.322,0.208,24.83,110.7689,26.87,27.98,20.72,0,111.5,12.97,27.72,113.5
"2016-07-06 01:15:30",1784240,5.206,155,3.547,0.185,24.88,110.7555,26.84,27.96,20.94,0,111.5,12.97,27.68,117.0
"2016-07-06 01:16:00",1784241,5.065,157.2,1.952,0.111,24.99,110.7401,26.8,27.95,21.01,0,111.5,12.97,27.64,119.2
"2016-07-06 01:16:30",1784242,4.733,155.2,2.729,0.177,24.76,110.7397,26.8,27.93,21.23,0,111.5,12.97,27.64,117.2
"2016-07-06 01:17:00",1784243,5.365,156.2,2.05,0.253,24.85,110.7224,26.75,27.91,21.28,0,111.5,12.97,27.60,118.2
"2016-07-06 01:17:30",1784244,5.511,156.2,1.335,0.093,24.85,110.7109,26.72,27.88,21.44,0,111.5,12.97,27.57,118.2
"2016-07-06 01:18:00",1784245,5.565,155.1,3.247,0.146,24.85,110.7141,26.73,27.86,21.45,0,111.5,12.97,27.58,117.1
"2016-07-06 01:18:30",1784246,5.739,155.5,1.263,0.177,24.94,110.7056,26.71,27.85,21.56,0,111.5,12.97,27.55,117.5
"2016-07-06 01:19:00",1784247,5.574,155,3.134,0.306,24.84,110.6909,26.67,27.82,21.49,0,111.4,12.97,27.52,117.0
"2016-07-06 01:19:30",1784248,5.667,157.9,4.562,0.3,24.81,110.6875,26.66,27.8,22.13,0,111.4,12.97,27.51,119.9
"2016-07-06 01:20:00",1784249,5.85,157.5,3.546,0.47,24.72,110.66,26.59,27.75,22.46,0,111.4,12.97,27.44,119.5
"2016-07-06 01:20:30",1784250,7.144,161,1.498,0.174,24.73,110.6565,26.58,27.7,21.37,0,111.4,12.97,27.43,123.0
"2016-07-06 01:21:00",1784251,7.245,161.2,1.176,0.19,24.78,110.6308,26.52,27.68,21.24,0,111.4,12.97,27.36,123.2
"2016-07-06 01:21:30",1784252,7.183,162.8,2.144,0.349,24.89,110.6176,26.48,27.64,21.55,0,111.4,12.97,27.33,124.8
"2016-07-06 01:22:00",1784253,6.326,163.8,2.344,0.206,24.91,110.595,26.42,27.6,21.54,0,111.4,12.97,27.27,125.8
"2016-07-06 01:22:30",1784254,5.823,162.4,3.991,0.206,24.89,110.5779,26.38,27.57,21.58,0,111.4,12.97,27.22,124.4
"2016-07-06 01:23:00",1784255,6.066,169.5,1.401,0.104,24.99,110.5631,26.34,27.51,21.68,0,111.4,12.97,27.19,131.5
"2016-07-06 01:23:30",1784256,5.749,165.9,2.053,0.234,24.96,110.5403,26.28,27.48,21.81,0,111.4,12.98,27.13,127.9
"2016-07-06 01:24:00",1784257,5.355,161.5,1.309,0.331,24.92,110.5326,26.26,27.45,21.9,0,111.4,12.98,27.11,123.5
"2016-07-06 01:24:30",1784258,5.219,163.7,2.86,0.267,24.95,110.5102,26.21,27.4,21.96,0,111.4,12.98,27.05,125.7
"2016-07-06 01:25:00",1784259,4.982,164.4,2.767,0.153,24.99,110.5015,26.18,27.36,22.01,0,111.4,12.98,27.03,126.4
"2016-07-06 01:25:30",1784260,5.061,166.3,1.187,0.181,25.13,110.4858,26.14,27.33,21.88,0,111.4,12.98,26.99,128.3
"2016-07-06 01:26:00",1784261,5.298,160.8,2.158,0.106,24.99,110.4693,26.1,27.3,21.85,0,111.4,12.98,26.94,122.8
"2016-07-06 01:26:30",1784262,5.26,164.5,1.426,0.158,25.15,110.4679,26.1,27.27,21.98,0,111.4,12.98,26.94,126.5
"2016-07-06 01:27:00",1784263,5.204,162.6,1.284,0.095,25.24,110.4592,26.07,27.22,22.02,0,111.4,12.98,26.92,124.6
"2016-07-06 01:27:30",1784264,5.13,163.3,2.156,0.101,25.35,110.4418,26.03,27.2,21.92,0,111.4,12.98,26.87,125.3
"2016-07-06 01:28:00",1784265,5.182,162.4,1.32,0.098,25.39,110.4342,26.01,27.17,21.94,0,111.4,12.98,26.85,124.4
"2016-07-06 01:28:30",1784266,5.24,162,2.618,0.193,25.49,110.4305,26,27.16,21.87,0,111.4,12.98,26.84,124.0
"2016-07-06 01:29:00",1784267,5.638,163.7,2.094,0.164,25.54,110.4078,25.94,27.1,21.85,0,111.4,12.98,26.78,125.7
"2016-07-06 01:29:30",1784268,5.409,164.3,2.491,0.124,25.51,110.4005,25.92,27.09,21.89,0,111.4,12.98,26.77,126.3
"2016-07-06 01:30:00",1784269,5.182,164.9,1.59,0.072,25.58,110.3899,25.9,27.06,22,0,111.4,12.98,26.74,126.9
"2016-07-06 01:30:30",1784270,5.228,165.5,1.367,0.148,25.63,110.3723,25.85,27.04,21.85,0,111.4,12.98,26.69,127.5
"2016-07-06 01:31:00",1784271,5.267,164.2,1.116,0.087,25.54,110.3728,25.85,26.99,21.86,0,111.4,12.98,26.69,126.2
"2016-07-06 01:31:30",1784272,5.363,163.9,0.822,0.063,25.52,110.3659,25.83,26.98,21.94,0,111.4,12.98,26.68,125.9
"2016-07-06 01:32:00",1784273,5.413,163.1,0.905,0.099,25.6,110.3559,25.81,26.96,21.8,0,111.4,12.98,26.65,125.1
"2016-07-06 01:32:30",1784274,5.621,163.3,0.802,0.071,25.72,110.3596,25.82,26.94,21.78,0,111.4,12.98,26.66,125.3
"2016-07-06 01:33:00",1784275,5.882,166.3,1.515,0.145,25.56,110.3395,25.77,26.9,21.52,0,111.4,12.98,26.61,128.3
"2016-07-06 01:33:30",1784276,5.894,167.8,0.569,0.08,25.59,110.3274,25.74,26.86,21.14,0,111.4,12.99,26.58,129.8
"2016-07-06 01:34:00",1784277,6.473,168.4,1.031,0.393,25.38,110.3232,25.73,26.83,22.14,0,111.4,12.98,26.57,130.4
"2016-07-06 01:34:30",1784278,6.715,167.3,1.191,0.27,25.41,110.3034,25.67,26.82,23.03,0,111.4,12.99,26.52,129.3
"2016-07-06 01:35:00",1784279,6.963,170,1.154,0.225,25.37,110.301,25.67,26.79,22.97,0,111.4,12.99,26.51,132.0
"2016-07-06 01:35:30",1784280,7.117,171.6,0.894,0.121,25.35,110.2781,25.61,26.75,22.92,0,111.4,12.99,26.45,133.6
"2016-07-06 01:36:00",1784281,7.325,171.2,0.718,0.105,25.44,110.2643,25.57,26.71,23.01,0,111.4,12.99,26.41,133.2
"2016-07-06 01:36:30",1784282,7.324,170.6,0.708,0.125,25.4,110.2382,25.51,26.68,23.47,0,111.3,12.99,26.35,132.6
"2016-07-06 01:37:00",1784283,7.464,170.6,0.885,0.099,25.35,110.2233,25.47,26.64,24.08,0,111.4,12.99,26.31,132.6
"2016-07-06 01:37:30",1784284,7.277,170.1,0.635,0.06,25.38,110.2017,25.41,26.6,24.37,0,111.4,12.99,26.25,132.1
"2016-07-06 01:38:00",1784285,7.223,171.4,0.598,0.076,25.38,110.1754,25.35,26.55,24.5,0,111.3,12.99,26.19,133.4
"2016-07-06 01:38:30",1784286,7.313,171.5,0.774,0.063,25.41,110.1563,25.3,26.51,24.3,0,111.3,12.99,26.14,133.5
"2016-07-06 01:39:00",1784287,7.16,172.4,0.81,0.116,25.44,110.1347,25.24,26.47,23.92,0,111.3,12.99,26.08,134.4
"2016-07-06 01:39:30",1784288,7.169,172.5,0.963,0.049,25.43,110.1091,25.17,26.42,23.59,0,111.3,12.99,26.01,134.5
"2016-07-06 01:40:00",1784289,7.262,173.5,0.324,0.08,25.45,110.0963,25.14,26.36,23.3,0,111.3,12.99,25.98,135.5
"2016-07-06 01:40:30",1784290,7.362,174.6,0.891,0.077,25.41,110.0771,25.09,26.31,23.77,0,111.3,12.99,25.93,136.6
"2016-07-06 01:41:00",1784291,7.118,174.2,0.776,0.143,25.39,110.0803,25.1,26.27,24.03,0,111.3,12.99,25.94,136.2
"2016-07-06 01:41:30",1784292,7.142,175,0.938,0.12,25.4,110.0611,25.05,26.24,23.62,0,111.3,12.99,25.89,137.0
"2016-07-06 01:42:00",1784293,7.016,174.5,0.774,0.198,25.42,110.0588,25.05,26.19,23.78,0,111.3,12.99,25.88,136.5
"2016-07-06 01:42:30",1784294,7.035,174.6,1.342,0.211,25.43,110.0393,25,26.17,23.74,0,111.3,13,25.83,136.6
"2016-07-06 01:43:00",1784295,7.026,175.9,1.004,0.235,25.36,110.0296,24.97,26.12,24,0,111.3,13,25.81,137.9
"2016-07-06 01:43:30",1784296,7.058,176.6,0.702,0.108,25.41,110.0277,24.97,26.09,23.85,0,111.3,13,25.80,138.6
"2016-07-06 01:44:00",1784297,6.881,175.6,1.007,0.159,25.36,110.0089,24.92,26.05,24.04,0,111.3,13,25.76,137.6
"2016-07-06 01:44:30",1784298,7.191,179.2,0.855,0.085,25.34,110.0034,24.9,26.01,24.18,0,111.3,13,25.74,141.2
"2016-07-06 01:45:00",1784299,6.887,177.9,1.283,0.146,25.34,109.9972,24.89,25.99,24.23,0,111.3,13,25.73,139.9
"2016-07-06 01:45:30",1784300,6.89,176.2,1.156,0.13,25.35,109.9798,24.84,25.96,24.22,0,111.3,13,25.68,138.2
"2016-07-06 01:46:00",1784301,6.795,177.9,1.389,0.138,25.39,109.9697,24.82,25.93,24.05,0,111.3,13,25.66,139.9
"2016-07-06 01:46:30",1784302,6.836,177.1,0.615,0.124,25.4,109.9697,24.82,25.91,23.83,0,111.3,13,25.66,139.1
"2016-07-06 01:47:00",1784303,6.89,178.2,0.872,0.114,25.36,109.9615,24.8,25.88,24.35,0,111.3,13,25.63,140.2